Theta_e
327 328 328 328 328 329 329 330 329 328 329 329 327 326 326 326 327 328 330 330 330 329 329 330 331 332 333 333 332 331 330 328 327 326 325 326 326 326 326 327 327 327 327 328 328 327 328 329 328 326 326 327 328 329 329 329 329 329 329 329 329 328 327 325 326 327 327 326 325 324 322 321 319 318 317 313 306 307 314 311 304 305 307 308 309
326 327 328 328 328 328 328 329 329 328 328 327 326 325 325 326 327 327 328 330 328 327 328 330 330 331 332 333 333 332 331 330 329 327 326 326 326 326 327 327 328 328 328 328 328 327 328 329 328 327 326 326 328 329 329 329 330 329 328 328 328 328 328 326 326 327 327 326 325 323 322 320 319 318 316 313 307 307 311 309 304 308 311 310 309
324 325 326 327 327 327 328 328 328 328 327 326 326 326 324 325 325 326 328 329 328 328 329 330 330 330 331 332 332 331 331 331 329 328 328 327 326 326 326 326 327 328 327 327 328 328 329 328 329 328 327 328 328 329 329 328 329 329 329 327 327 328 328 326 326 327 327 325 324 322 321 320 319 318 317 315 309 307 311 309 306 310 314 313 311
323 324 325 325 326 326 326 327 327 327 328 328 328 327 326 325 324 325 327 328 328 330 330 330 330 330 331 332 332 332 332 331 329 329 329 328 328 328 327 327 327 327 327 328 329 329 329 329 328 328 328 329 329 329 328 328 328 328 328 327 327 327 327 326 326 326 325 324 323 321 320 320 320 319 317 316 312 308 310 310 308 311 313 313 313
323 324 324 324 325 325 325 326 326 326 327 328 328 328 328 327 325 326 327 327 328 330 330 331 331 330 331 331 331 332 332 329 328 329 329 328 329 328 327 328 328 327 328 329 329 328 328 330 329 329 329 328 328 328 328 327 328 327 327 327 326 326 326 326 325 324 324 323 321 320 320 320 320 318 317 317 313 310 310 310 310 311 311 311 313
323 323 323 323 323 324 324 325 326 326 326 327 328 328 328 328 327 328 328 327 327 328 328 330 330 329 330 330 331 331 330 329 329 330 330 329 329 328 327 328 328 327 328 329 328 328 329 329 329 330 329 328 328 328 327 327 328 327 327 327 327 327 326 326 324 323 323 322 321 320 319 318 319 317 317 317 314 311 311 311 311 311 311 312 312
322 322 322 323 322 323 323 324 325 326 326 327 328 328 328 329 328 329 328 327 327 327 328 328 329 328 328 329 330 330 329 329 329 329 329 329 329 329 328 328 327 326 327 327 327 328 330 329 329 329 329 328 327 327 327 328 328 327 327 327 326 326 326 326 324 323 322 321 320 320 319 318 317 316 316 316 314 312 311 312 312 312 312 312 312
321 321 322 322 322 323 323 324 325 325 326 326 327 328 328 329 328 328 328 327 327 328 328 328 328 328 327 328 330 329 328 328 327 326 327 328 328 329 328 327 326 325 325 325 326 327 329 329 329 329 328 328 327 327 327 327 326 326 326 326 326 326 326 326 325 323 322 322 320 319 319 318 317 316 315 315 314 313 312 312 312 312 313 313 313
320 321 321 321 322 322 323 324 325 326 326 326 327 328 328 328 328 328 328 328 328 327 327 328 328 327 328 328 329 328 327 327 326 324 324 326 327 329 326 325 325 324 323 325 326 327 329 328 328 328 328 327 326 327 327 327 326 325 324 325 326 326 326 325 325 323 323 322 321 320 319 318 318 318 316 316 316 315 314 313 314 314 314 314 314
319 320 320 321 321 322 323 324 324 325 326 326 326 327 327 327 327 327 328 328 328 326 326 327 327 327 328 328 326 326 326 326 325 324 323 325 326 326 324 323 324 324 324 325 326 327 328 328 327 328 328 326 324 325 326 327 325 323 323 325 325 324 324 325 325 323 323 323 321 320 319 319 319 319 318 318 318 317 316 316 316 316 316 316 316
319 319 320 320 321 321 322 323 324 325 326 326 326 325 326 327 327 327 327 328 328 326 326 327 326 327 329 328 326 326 325 325 326 326 324 324 324 322 321 322 323 324 326 327 327 328 328 328 327 325 326 326 323 321 324 325 323 322 323 324 324 322 324 325 324 323 322 322 321 321 320 319 319 319 319 318 318 318 319 318 317 317 316 317 317
319 319 319 319 320 320 321 322 323 323 324 324 324 324 325 325 326 326 326 327 327 327 327 328 327 327 329 328 328 328 326 325 326 325 324 322 321 321 320 321 322 325 327 327 328 328 327 327 327 326 326 326 323 323 325 325 323 322 323 324 324 324 324 324 324 323 323 322 321 321 321 320 320 319 320 320 320 320 320 320 319 318 318 317 317
318 318 318 318 319 320 320 321 321 321 322 323 324 324 324 324 324 325 325 326 326 326 327 327 327 327 328 328 328 328 328 326 324 323 323 323 322 322 321 321 323 326 328 328 327 328 327 327 326 326 325 325 324 324 325 324 322 322 322 322 323 323 323 322 322 322 322 322 322 321 321 321 320 320 320 321 321 321 321 320 319 319 319 319 318
318 318 318 318 318 318 319 320 320 320 321 322 324 323 322 322 322 322 323 325 326 326 326 326 326 326 327 327 327 327 327 326 324 323 323 324 324 323 322 323 325 326 327 327 327 327 327 326 326 325 325 325 325 324 322 320 320 320 319 319 319 319 320 321 322 321 321 323 323 322 322 322 320 319 320 321 320 321 321 320 319 320 320 320 319
317 318 318 318 317 317 318 318 319 319 320 321 322 322 320 320 320 320 321 323 325 326 326 325 325 325 326 326 326 326 326 325 324 323 323 324 324 323 323 324 324 324 325 327 327 327 326 325 325 325 325 325 323 320 319 319 319 318 318 318 318 317 318 320 322 322 321 321 321 321 320 320 318 317 318 318 318 319 320 319 319 320 320 320 319
316 317 317 317 317 317 318 318 318 318 319 320 320 320 319 319 319 320 320 321 323 324 325 325 324 324 325 326 324 323 324 326 325 323 322 323 323 323 324 325 324 324 325 326 325 326 326 325 324 325 324 323 320 319 319 320 320 319 318 318 318 317 317 317 319 319 318 318 318 317 316 314 314 314 315 315 315 315 317 318 319 319 319 318 318
315 316 317 318 317 317 318 318 318 318 318 319 319 319 319 319 319 320 320 320 321 322 323 322 322 321 322 323 322 321 323 325 324 323 323 323 323 323 323 325 326 325 325 325 325 325 325 325 324 324 323 321 319 319 320 321 321 319 318 317 317 317 316 316 315 315 314 314 313 312 312 312 312 313 313 314 315 315 317 319 319 319 318 317 316
314 315 317 318 317 317 318 318 319 318 317 318 318 318 318 319 319 319 319 320 320 321 321 321 320 320 321 321 321 320 322 325 324 323 323 322 322 323 322 323 325 324 323 324 325 324 325 324 323 323 322 320 319 319 319 321 322 320 317 316 316 315 314 313 313 312 312 312 312 312 313 313 314 314 314 314 314 314 315 317 318 317 316 315 315
313 314 315 317 318 318 318 318 319 319 318 318 317 317 319 319 319 318 318 319 320 320 320 319 318 318 319 320 319 320 321 322 322 322 322 322 322 322 322 322 323 323 322 323 324 324 324 324 323 323 320 318 318 318 318 320 321 320 317 315 314 313 312 312 312 313 313 313 314 314 313 314 314 313 312 311 311 311 310 312 314 315 314 312 312
312 312 313 315 317 317 317 317 318 318 318 318 317 317 318 318 318 316 316 317 318 318 319 319 317 317 319 318 318 319 319 318 319 320 321 322 322 321 321 322 323 321 321 322 323 323 323 323 322 320 318 318 318 317 317 319 319 319 318 316 313 312 313 313 313 314 314 314 314 313 313 312 311 309 308 307 306 305 305 305 308 311 311 310 310
312 311 311 313 314 316 316 316 316 317 316 317 317 317 317 318 317 316 315 315 316 317 318 318 315 314 315 316 316 317 318 317 318 319 319 321 321 321 320 321 321 321 321 320 321 321 321 320 319 317 317 318 317 317 319 319 317 316 316 315 313 313 314 313 313 314 315 314 313 312 310 308 305 303 302 301 300 300 300 299 300 303 307 309 309
311 310 309 310 312 314 315 316 316 316 316 316 316 316 316 316 316 315 314 314 314 315 317 317 314 311 313 316 315 316 318 318 317 318 318 319 320 320 320 320 320 319 319 318 318 318 318 318 317 317 318 317 316 316 317 316 315 314 314 314 313 313 314 313 313 313 313 311 309 307 305 302 300 299 299 298 298 298 298 298 298 299 303 306 308
310 309 309 308 309 310 312 314 314 315 315 316 316 316 316 315 315 314 314 314 314 315 316 317 316 315 315 317 316 316 318 318 317 318 318 318 318 319 318 318 318 318 317 317 317 317 317 317 317 317 316 316 315 314 314 314 313 314 314 314 313 312 312 311 311 310 308 305 302 301 300 301 301 302 301 299 298 298 297 298 298 297 299 302 304
309 309 308 308 307 308 309 311 312 313 314 315 315 315 315 315 315 315 315 315 315 316 316 316 317 316 316 316 315 316 316 317 317 317 317 317 317 317 316 316 316 316 316 316 315 315 316 316 316 316 315 314 314 314 314 314 314 313 312 311 310 308 307 307 306 304 302 300 300 301 303 305 306 304 302 299 298 298 297 297 297 297 296 297 298
308 308 307 307 307 306 307 308 309 310 311 313 313 313 313 314 314 314 315 315 315 314 314 314 314 315 315 315 314 314 314 315 315 315 315 316 316 315 315 315 315 315 315 315 314 314 314 315 314 314 314 313 313 312 312 310 310 309 307 305 303 302 302 301 300 299 299 300 300 300 302 304 303 301 299 298 299 300 299 298 298 297 298 298 297
307 307 306 306 305 306 307 307 308 308 309 310 311 311 311 311 311 311 312 313 312 311 311 311 311 311 310 310 311 310 310 311 311 311 311 311 311 311 312 312 312 313 313 312 311 311 311 310 310 310 310 309 308 307 305 304 303 303 302 302 301 300 299 298 298 300 302 303 301 300 299 299 299 297 297 300 303 303 302 302 301 301 301 301 301
305 306 306 305 305 305 306 306 307 307 307 308 308 308 309 309 309 309 309 309 309 308 308 308 308 308 307 307 307 307 307 307 307 307 307 307 307 307 307 307 308 308 309 308 307 306 305 305 304 304 303 303 303 303 301 300 300 300 300 300 300 299 298 297 298 299 300 300 300 299 298 296 297 297 298 301 303 303 302 302 302 302 302 302 302
305 304 305 305 304 304 304 304 304 305 305 306 306 306 306 307 307 307 307 307 307 307 306 306 306 306 306 306 306 306 306 306 306 305 305 304 304 304 304 305 305 305 306 305 305 305 304 303 303 302 302 301 301 301 301 300 300 300 300 299 299 298 297 297 297 296 296 296 297 297 297 298 299 301 301 302 302 301 301 302 302 301 301 301 301
305 304 304 304 304 303 303 303 303 303 303 303 303 303 303 303 304 304 304 304 304 305 305 305 305 305 305 306 305 306 306 306 305 304 303 303 303 303 303 304 304 304 304 304 304 304 304 303 302 302 301 300 300 300 300 300 300 300 300 299 299 299 298 297 297 296 297 299 300 300 301 302 302 302 302 302 301 301 301 301 301 301 301 301 301
304 304 304 304 303 303 303 303 303 302 301 301 301 300 300 301 301 301 301 301 302 302 302 302 302 302 303 303 303 303 303 303 302 302 302 302 301 302 302 302 302 302 301 301 301 302 302 302 301 301 300 300 300 300 300 300 300 300 300 300 299 299 298 298 297 296 297 299 301 301 301 302 301 301 301 300 300 300 300 300 301 300 300 300 300
302 303 303 303 303 303 303 303 303 302 302 301 301 300 299 299 299 299 299 299 300 300 300 300 300 300 300 300 300 300 300 300 300 300 301 300 300 300 300 300 300 300 300 301 301 301 302 302 301 301 301 301 301 301 301 301 301 301 300 299 298 298 297 297 297 296 296 297 298 298 299 300 300 300 300 299 299 299 299 300 300 300 300 300 300
303 302 302 302 302 303 303 303 302 302 302 302 302 301 301 300 299 299 298 298 298 298 298 299 299 299 299 299 299 299 300 300 301 301 300 300 300 300 299 299 299 299 300 300 301 302 302 302 301 301 301 301 301 301 300 300 300 299 298 298 297 296 296 296 296 296 296 296 297 297 298 299 299 299 299 299 299 299 299 299 299 299 299 299 299
303 303 302 302 302 302 302 302 302 302 302 302 302 301 301 301 301 300 300 299 298 298 298 298 299 299 299 299 299 300 300 301 301 301 300 300 299 299 299 299 299 298 298 298 299 299 299 299 299 299 299 299 299 298 298 297 297 297 297 297 297 296 296 296 296 296 296 296 297 297 297 297 297 297 298 298 298 299 299 299 298 298 299 299 298
302 302 302 302 302 302 302 301 301 301 301 301 301 301 301 301 301 301 301 300 299 299 298 299 299 300 300 300 301 301 301 301 301 301 300 300 300 300 300 300 299 299 298 298 297 297 296 296 296 296 296 296 296 296 297 297 297 297 297 297 297 297 297 297 297 297 296 296 297 296 296 297 297 297 298 298 298 298 298 298 298 298 298 298 298
301 301 301 301 302 302 302 301 301 300 300 300 300 300 300 300 300 300 300 300 300 300 299 299 298 299 300 300 301 301 301 301 301 301 301 301 300 300 300 300 300 299 299 298 298 297 295 295 295 295 295 295 296 296 297 297 297 297 297 297 297 297 297 297 297 297 297 297 297 297 297 298 298 298 298 298 298 298 298 298 298 298 297 297 297
301 301 301 301 301 301 300 300 300 300 299 299 299 299 299 300 300 300 300 300 300 300 300 299 299 298 298 298 298 298 299 299 299 299 300 299 299 299 300 300 299 299 298 298 297 297 296 295 295 296 296 296 296 296 296 296 296 296 296 296 296 297 297 297 297 297 297 297 297 297 297 297 297 297 297 297 297 297 297 297 296 296 296 296 296
301 301 301 300 300 300 299 299 298 298 299 299 299 299 299 299 299 299 299 299 299 299 299 299 299 299 298 298 298 297 297 297 297 297 297 297 297 298 298 298 298 298 298 297 297 297 296 296 296 296 296 296 296 296 296 295 295 295 295 296 296 296 296 296 296 296 296 296 296 296 296 296 296 296 296 297 297 296 296 295 294 294 294 295 295
300 300 300 300 300 300 299 299 299 298 298 298 298 298 298 299 299 299 299 299 299 299 298 298 298 298 298 298 298 298 297 297 296 296 296 296 296 296 297 297 297 297 297 297 297 297 297 296 296 296 296 296 296 296 295 295 295 295 295 295 295 295 295 295 295 295 295 296 296 296 296 296 296 296 296 296 296 296 295 295 294 293 294 294 294
298 299 299 299 299 299 299 299 299 299 299 299 298 298 298 298 299 299 299 298 298 299 298 298 297 297 297 297 298 298 297 297 297 296 296 296 296 296 296 296 296 296 296 296 296 295 295 295 294 294 294 294 295 295 295 295 295 295 295 295 294 294 294 295 295 295 295 295 295 295 295 295 295 295 295 295 295 295 294 294 294 294 294 294 293
298 298 298 298 298 298 298 298 299 299 299 299 298 298 298 298 298 298 298 298 298 298 298 297 296 295 295 296 297 298 297 297 297 296 296 296 296 296 296 296 296 295 295 295 294 294 293 293 293 292 292 292 293 294 294 294 294 294 294 295 295 295 294 295 295 295 295 295 295 295 295 295 295 295 295 295 294 294 294 293 293 293 293 293 292
298 298 298 298 298 298 298 298 298 298 298 299 299 298 298 298 298 298 298 298 298 298 298 297 296 295 295 295 296 297 297 297 297 296 296 296 296 296 296 296 295 295 295 295 294 294 293 292 292 292 292 292 292 292 293 293 293 294 294 294 294 294 294 294 294 294 294 295 295 295 295 294 295 295 294 294 294 294 294 294 293 293 293 293 292
299 299 299 299 299 299 298 298 298 298 298 298 298 298 298 298 298 297 297 297 297 297 297 297 297 296 295 296 296 297 297 297 296 296 296 296 296 295 295 295 295 295 295 295 294 293 293 292 292 291 291 291 291 292 292 293 293 293 293 294 294 294 294 294 294 294 294 294 294 294 294 294 294 294 294 294 294 294 293 293 293 293 293 292 292
299 299 299 299 299 298 298 298 298 297 297 297 297 298 298 298 298 298 297 297 297 297 297 297 297 297 296 296 296 296 297 297 296 296 296 296 295 295 295 295 295 295 295 294 294 294 293 293 292 291 290 290 290 291 292 292 293 293 293 293 293 293 294 294 294 294 294 294 294 294 294 294 294 294 293 293 293 293 293 292 292 292 293 292 291
299 299 299 299 299 298 298 298 298 297 297 297 297 297 297 297 297 297 297 297 297 297 297 297 296 296 296 296 296 296 296 296 296 296 295 295 295 295 295 295 295 294 294 294 294 294 294 293 293 292 290 289 289 289 290 291 293 293 293 293 293 293 293 293 294 294 294 294 293 293 293 293 294 293 293 292 292 292 292 292 291 290 291 291 291
300 300 299 299 299 299 298 298 298 298 298 298 298 298 297 297 297 296 296 296 297 297 296 296 296 296 296 296 296 295 296 296 295 295 295 295 295 295 295 295 294 294 294 294 294 294 294 294 293 292 291 290 289 288 288 289 291 292 293 293 293 293 293 293 293 293 293 293 293 293 293 293 293 293 293 293 292 292 292 291 290 289 289 290 290
299 299 299 299 299 299 298 298 298 298 298 298 298 297 297 297 297 297 296 296 296 296 296 296 296 296 296 296 296 295 295 295 295 295 295 295 294 294 294 294 293 294 293 293 293 294 294 294 293 293 291 290 289 288 287 288 289 291 293 294 293 293 292 292 292 293 293 293 293 293 293 293 293 292 292 292 292 292 291 289 288 288 289 290 290
299 299 299 299 299 298 298 298 298 298 298 297 297 297 297 297 297 297 296 296 296 296 296 296 296 296 296 296 296 295 295 295 295 295 294 294 294 294 293 292 292 293 293 293 293 293 293 293 293 293 292 290 289 288 287 288 289 290 291 293 294 293 293 292 292 292 292 292 293 293 293 292 292 292 292 291 291 291 290 288 287 288 289 290 289
299 299 299 299 299 299 298 298 298 297 297 297 297 297 296 296 297 296 296 296 296 296 296 296 296 296 296 296 296 295 295 295 295 295 295 294 294 294 294 292 291 292 293 293 292 292 293 293 293 292 291 290 289 288 287 287 288 289 289 291 293 294 294 293 293 292 292 292 292 293 293 292 292 292 292 291 290 289 289 289 289 289 289 290 290
298 298 298 298 299 299 298 298 298 297 297 297 297 297 296 297 296 296 296 296 296 296 296 296 296 296 296 296 295 295 295 295 295 295 295 295 294 294 294 293 292 292 292 292 292 292 292 292 292 292 292 291 289 288 287 287 287 287 287 288 290 293 294 294 293 293 293 293 292 292 292 292 291 290 290 289 288 287 288 289 290 290 290 290 290
298 298 298 298 299 299 298 298 298 297 297 297 297 297 297 296 296 296 296 296 296 296 296 296 296 296 296 296 296 295 295 295 295 295 295 295 295 294 294 294 293 293 293 293 292 291 291 291 292 292 292 291 290 289 288 287 286 286 286 286 287 289 292 294 294 293 293 293 293 292 291 290 289 288 287 287 286 286 287 288 288 289 289 290 289
298 298 299 298 298 298 298 298 297 298 297 297 297 297 297 297 297 296 296 296 296 296 296 296 295 296 295 295 295 295 295 295 295 295 295 295 295 295 294 294 294 293 293 293 292 292 291 291 291 291 291 292 291 290 289 287 286 286 286 285 286 287 289 291 293 293 293 293 292 291 289 288 287 286 286 286 287 286 286 287 287 288 289 289 288
Wind_Speed
7 7 7 7 8 9 9 9 13 15 15 17 19 20 22 23 23 25 24 21 21 20 20 19 18 17 18 18 20 21 21 20 20 19 20 20 20 20 20 20 19 19 19 19 19 20 20 19 20 19 20 21 20 17 16 16 14 14 14 12 13 12 9 13 17 16 14 14 13 13 14 14 13 13 12 10 11 12 11 11 12 12 11 9 8
7 7 7 8 9 10 10 10 13 15 15 16 17 17 18 18 20 23 22 21 21 21 19 18 19 19 19 20 21 21 21 20 20 20 21 21 21 20 20 19 19 18 18 18 18 19 19 17 17 18 18 20 19 16 17 17 15 14 14 14 15 13 9 12 17 17 15 16 14 13 14 14 12 13 11 9 10 12 11 11 12 12 9 8 8
8 8 8 8 9 10 11 12 14 16 16 16 16 17 17 18 20 22 22 22 21 19 18 18 19 20 20 20 20 19 19 19 19 19 20 22 21 21 21 21 19 19 17 16 17 18 18 18 18 18 18 18 18 17 18 18 16 14 14 15 16 15 10 10 15 17 17 17 15 13 13 14 12 12 10 8 9 11 10 10 11 10 9 8 7
9 9 9 9 10 10 11 13 14 15 15 15 16 17 17 18 18 18 19 20 19 17 17 16 17 19 20 20 19 18 18 18 19 19 20 20 20 21 21 19 18 19 18 17 17 17 17 18 19 19 18 17 19 19 18 18 17 17 16 15 16 17 15 11 13 16 18 17 15 13 13 14 12 11 10 8 8 10 10 10 10 10 10 9 8
9 10 10 10 11 11 12 13 13 14 14 13 15 16 17 17 16 16 17 17 18 17 16 16 16 17 18 19 19 18 17 17 18 20 20 20 21 21 19 17 17 19 20 19 19 18 17 18 19 19 18 18 19 18 17 18 18 17 16 15 15 17 16 12 12 15 16 16 14 13 13 13 11 10 11 10 10 10 11 11 10 11 10 9 9
10 10 11 11 11 12 12 13 13 14 13 13 13 15 16 17 16 15 16 16 18 18 16 15 14 13 14 17 19 17 14 15 16 18 17 17 18 18 17 17 17 18 20 19 18 19 18 18 18 18 18 19 19 16 15 17 17 16 16 14 14 16 15 13 13 15 15 15 14 14 13 12 11 11 11 11 11 11 11 11 10 11 11 10 10
10 11 11 11 12 12 12 13 13 13 13 12 12 14 15 15 15 15 15 15 16 16 14 13 13 12 13 13 15 15 14 16 16 15 13 14 14 14 15 15 15 17 18 17 19 20 18 17 17 17 18 17 16 15 16 17 16 16 17 16 16 17 15 13 14 15 14 14 14 13 13 12 11 11 11 11 10 11 12 11 11 11 11 11 11
11 11 11 11 12 12 12 12 12 12 13 12 12 12 13 14 15 15 15 14 14 13 11 13 13 13 13 12 13 14 14 16 16 14 14 15 14 14 14 13 14 16 17 18 20 19 16 17 17 16 16 16 16 16 17 17 16 16 17 16 16 17 16 13 13 14 14 14 14 13 13 12 11 10 11 11 10 10 11 11 11 11 11 11 11
11 11 12 12 12 12 12 12 11 11 12 12 13 13 12 13 15 15 14 14 14 13 11 13 13 12 12 12 13 14 14 15 16 15 15 15 14 15 14 13 13 15 15 17 19 17 15 16 17 15 15 16 16 15 15 13 13 15 17 13 13 17 18 15 14 15 15 13 13 13 13 12 12 12 12 11 11 10 10 10 10 10 10 10 10
11 11 11 12 12 12 13 13 12 11 11 12 13 13 12 12 13 13 13 13 13 13 12 12 13 12 9 9 10 12 13 15 15 14 14 14 15 15 15 14 15 16 16 16 17 16 15 14 15 15 14 15 15 15 14 12 11 14 17 13 11 16 17 15 14 15 15 14 13 13 13 12 12 12 11 11 10 10 9 10 10 9 10 10 10
11 12 11 12 12 12 13 14 13 11 10 11 12 12 11 10 9 9 10 11 12 13 12 12 11 11 10 10 10 11 12 14 15 14 13 13 15 15 15 16 16 17 17 17 17 16 15 13 13 14 14 14 15 14 14 14 12 13 15 14 13 15 15 14 14 13 13 14 13 12 12 13 13 12 12 12 11 10 10 10 10 10 10 11 11
11 12 11 11 11 12 13 14 14 12 11 11 11 11 10 8 7 8 8 7 8 9 10 11 10 10 11 10 11 12 12 13 16 15 13 12 13 13 14 15 16 17 17 17 16 15 14 13 14 15 15 14 15 14 14 15 15 15 16 15 14 14 14 14 14 13 11 12 13 14 11 12 15 14 10 10 11 11 11 10 10 11 11 12 13
11 11 12 12 11 12 14 14 14 13 11 10 11 11 10 9 8 7 7 6 5 4 5 7 8 10 11 10 11 12 13 16 18 16 13 10 9 10 12 13 14 15 14 14 14 14 14 14 15 16 15 14 14 14 15 16 15 15 15 15 15 15 14 14 13 13 10 8 10 12 9 8 12 13 9 9 10 9 10 11 11 10 11 12 13
11 11 12 13 11 12 13 13 13 13 11 9 9 9 10 12 13 12 9 7 5 3 4 7 7 10 13 12 12 13 15 18 19 16 13 10 8 8 9 10 11 11 11 12 13 13 13 14 15 15 15 14 15 16 16 16 16 15 14 15 14 13 14 14 15 15 13 9 8 10 9 7 9 10 10 12 12 10 9 10 9 8 10 11 10
12 12 13 15 14 12 12 13 13 13 11 9 8 9 11 12 14 15 14 10 5 4 5 7 8 9 12 13 13 12 14 18 18 16 13 12 11 9 7 7 9 10 10 11 12 12 12 13 14 15 16 16 16 17 17 16 15 15 14 13 12 12 12 14 15 15 15 13 10 9 10 9 8 8 10 12 13 13 12 11 10 11 12 11 7
13 13 15 17 16 13 11 12 13 13 11 9 8 10 11 12 14 14 14 12 7 4 4 6 8 9 11 12 12 13 15 17 18 16 14 12 12 9 7 6 7 7 9 10 10 11 10 10 13 16 17 18 18 18 17 15 14 13 12 11 11 11 11 12 13 12 12 11 10 8 8 9 9 9 11 11 12 13 12 9 10 12 12 10 10
14 13 14 16 17 15 12 11 12 12 11 9 8 9 10 12 14 13 13 13 10 6 4 3 2 2 5 6 9 12 14 17 18 16 13 12 11 9 9 9 8 8 8 8 8 11 11 11 15 17 18 20 20 17 15 13 11 10 10 10 10 10 10 10 10 10 9 9 8 7 8 8 9 11 12 11 11 10 8 5 6 8 8 8 10
15 14 14 15 16 17 14 10 10 11 11 11 10 9 11 13 13 13 13 14 13 11 10 10 10 9 7 6 5 3 8 15 17 14 12 11 10 9 9 9 9 7 7 8 9 12 14 15 15 16 17 19 18 15 14 13 12 11 10 9 9 9 9 8 8 8 8 7 7 8 8 9 10 11 10 10 9 9 8 7 7 6 5 6 5
16 15 14 13 14 16 15 12 10 10 10 10 10 10 11 13 14 14 15 16 15 13 12 12 11 11 10 9 8 5 6 12 12 11 10 8 9 8 6 7 8 4 4 7 10 12 16 18 16 16 17 17 15 13 14 13 11 10 9 8 7 7 7 7 7 5 5 6 7 8 8 9 11 11 9 9 9 9 9 10 10 8 4 3 3
16 15 14 13 13 14 14 13 12 11 10 10 10 9 10 12 14 15 16 16 16 14 12 10 8 8 10 10 9 8 10 9 7 7 8 6 6 6 5 9 13 9 6 8 11 14 16 16 14 14 15 15 14 13 13 12 11 10 10 9 6 5 6 7 6 4 3 5 6 6 6 7 9 9 8 9 9 10 11 11 12 12 9 5 4
16 16 17 16 15 14 14 14 13 13 12 11 9 8 9 10 12 13 14 14 14 13 12 11 11 10 9 9 9 8 8 6 3 3 5 3 4 4 2 3 7 9 9 10 13 16 15 13 13 15 15 15 15 14 13 12 11 9 9 7 5 5 5 5 8 9 7 7 5 2 2 3 5 5 7 9 9 9 10 11 11 12 11 10 9
16 18 19 20 20 18 15 14 14 15 14 12 10 9 8 8 10 11 12 11 11 11 10 10 11 11 8 9 9 8 8 7 4 3 3 2 2 1 2 3 3 4 5 6 10 14 14 14 15 17 16 15 16 15 14 12 9 7 7 6 6 8 7 6 9 10 7 5 3 3 2 3 4 5 7 8 6 6 8 8 10 11 11 12 12
16 18 19 21 22 21 19 17 16 16 15 13 11 11 9 8 10 11 11 9 8 9 10 10 12 12 12 14 13 10 10 11 9 7 7 7 7 6 6 6 5 3 1 4 7 10 12 14 15 15 14 14 14 12 10 8 7 6 7 7 8 9 8 6 7 5 3 3 3 3 2 1 1 2 5 5 4 5 5 5 7 9 10 11 12
16 17 19 20 21 21 22 22 20 19 17 14 12 11 9 8 10 13 13 12 10 10 11 11 12 14 15 17 18 16 14 14 12 10 9 9 10 10 10 11 10 6 5 7 9 9 9 10 11 10 10 10 10 9 8 7 6 6 6 6 6 7 6 4 3 2 2 4 4 3 3 4 3 3 4 4 3 4 3 4 5 7 9 10 11
17 18 18 19 19 20 23 24 23 22 21 19 17 16 13 13 16 18 18 17 17 17 16 15 16 17 18 19 20 21 20 18 17 16 14 13 12 12 11 10 9 7 7 10 11 10 9 8 7 6 6 6 7 7 7 7 7 7 7 6 6 6 5 3 2 2 3 4 4 4 5 4 4 5 5 2 2 3 2 1 1 1 1 1 3
18 19 20 21 21 21 23 24 24 25 25 24 23 23 22 23 25 26 24 24 24 23 22 21 21 22 23 23 23 23 23 22 21 20 19 18 17 15 13 11 10 9 10 12 12 11 11 10 8 7 6 6 6 6 6 7 7 7 7 6 6 6 5 2 3 4 4 4 3 3 4 4 5 6 2 3 4 3 3 3 4 5 5 4 3
17 17 18 19 21 24 25 25 24 25 26 26 26 25 25 24 25 26 26 25 24 23 23 22 22 22 23 23 22 21 21 21 20 19 19 18 17 16 14 13 12 11 11 12 12 11 12 11 10 10 9 8 8 9 9 10 9 8 8 7 6 6 3 1 2 3 4 5 5 5 5 5 3 2 2 5 6 6 6 5 4 3 4 3 3
17 17 17 17 18 20 22 24 24 25 25 25 26 26 25 23 23 23 23 22 20 20 20 20 20 19 19 18 16 15 15 16 16 16 16 15 14 12 11 11 9 8 9 8 6 5 5 5 5 6 7 8 9 10 9 9 9 8 8 7 6 4 2 1 1 3 4 5 6 6 4 2 3 4 4 5 5 5 6 5 4 4 4 3 3
15 15 16 16 16 16 17 19 21 23 24 25 25 26 25 24 24 23 23 21 20 18 18 18 18 16 14 13 13 11 11 12 13 14 14 13 12 10 10 9 9 8 7 6 3 1 1 1 4 5 6 6 7 7 6 6 7 7 6 5 3 2 1 1 3 5 4 3 3 4 4 4 6 6 5 6 6 6 6 6 5 4 4 3 3
15 15 15 15 15 15 15 16 16 18 20 22 24 25 26 25 24 23 23 21 20 19 19 19 19 17 15 15 15 14 14 15 14 13 13 13 13 13 13 12 12 12 12 11 9 7 6 7 9 10 9 9 9 8 7 7 6 6 5 5 5 3 4 6 7 7 7 7 7 7 7 6 5 5 5 6 6 7 9 7 5 5 5 4 3
15 15 15 15 15 15 15 15 15 15 16 17 19 22 24 25 25 24 21 20 20 20 20 20 19 18 19 20 20 19 19 19 18 17 16 16 15 15 16 15 15 15 15 14 14 14 13 11 10 10 9 8 8 7 7 7 6 6 5 5 4 4 6 7 6 5 6 7 8 9 9 7 6 5 5 5 4 5 7 6 4 5 5 4 4
14 15 15 15 15 15 15 15 15 15 14 14 14 15 17 20 22 23 21 19 19 20 20 19 18 18 18 19 19 19 19 18 17 16 16 15 14 14 14 14 14 14 14 13 12 12 11 10 9 9 8 8 8 8 8 8 7 7 7 6 4 4 5 4 4 4 4 4 4 6 9 9 8 8 8 7 5 5 4 4 4 6 6 6 6
13 13 13 13 14 15 15 15 14 14 14 14 14 13 13 13 16 19 20 19 19 19 19 18 17 16 17 17 16 16 15 14 13 13 12 12 12 12 11 11 12 12 12 11 11 10 9 8 7 7 7 7 7 7 7 7 7 6 5 4 4 4 3 2 3 4 3 3 2 3 6 6 5 5 6 7 6 5 4 4 4 5 6 8 7
14 13 13 13 13 14 14 14 14 14 14 13 13 13 13 12 12 13 15 16 16 18 19 18 15 13 13 14 13 12 12 11 10 9 10 10 9 9 9 10 10 10 10 10 10 9 8 8 7 7 6 6 6 7 7 7 6 5 3 3 3 4 3 2 3 4 2 2 2 2 1 2 2 2 3 4 5 4 4 4 5 5 5 6 5
13 13 14 14 13 13 13 13 14 14 14 13 13 12 12 12 12 12 12 12 13 13 15 18 17 14 11 11 11 9 8 8 7 7 8 8 7 8 8 9 9 9 9 9 9 8 7 7 7 6 6 5 4 6 4 2 2 3 3 1 1 1 1 0 2 1 1 1 1 0 2 2 2 2 2 3 4 4 4 4 5 5 5 4 3
12 12 13 13 14 14 14 14 14 14 14 14 14 13 12 12 12 12 12 12 12 11 11 14 17 17 15 14 13 11 8 7 7 7 7 7 8 8 8 8 8 8 7 7 7 6 6 5 5 5 5 4 3 3 2 1 1 1 1 1 0 1 2 2 2 2 1 1 3 3 3 3 3 2 3 4 5 5 5 5 5 4 5 5 4
11 12 12 12 12 13 14 14 15 15 15 14 14 14 14 13 12 12 12 12 12 12 11 11 13 14 15 16 18 17 14 11 10 9 8 8 8 8 7 7 7 8 7 6 6 5 5 4 4 4 4 4 3 3 3 4 4 2 1 2 2 4 5 5 4 4 3 1 2 3 4 3 3 3 3 4 5 4 4 4 4 4 6 7 5
11 12 12 12 12 12 12 13 14 14 14 15 15 15 15 14 14 13 13 12 12 12 11 11 10 10 10 12 15 17 16 15 13 11 11 11 10 9 8 7 7 7 7 6 6 5 4 4 3 3 3 3 4 4 4 4 4 4 3 3 3 3 2 3 2 2 4 2 2 3 4 3 4 4 4 4 4 4 4 4 3 3 5 5 4
12 13 13 13 13 13 12 12 13 13 13 14 14 14 14 14 14 13 13 12 12 11 11 11 11 11 8 7 8 10 12 12 12 12 12 12 11 11 10 10 9 8 8 7 6 6 5 5 5 4 4 3 3 3 3 2 2 2 2 2 3 3 2 1 1 0 2 2 3 4 4 4 4 4 4 4 3 3 4 4 4 4 4 3 2
12 12 12 12 13 13 12 12 12 12 12 12 12 13 13 13 13 12 12 12 12 11 11 12 14 15 12 10 11 11 11 10 10 11 11 11 11 11 11 10 10 9 9 8 8 8 8 8 8 7 7 7 5 4 4 3 2 2 1 1 2 1 1 1 1 1 2 3 3 4 4 4 3 3 3 3 3 3 3 3 3 3 3 2 1
11 12 13 13 12 12 12 12 11 11 11 11 11 11 11 11 12 12 11 11 11 11 11 11 13 17 16 12 10 11 12 10 8 9 10 10 10 10 10 9 9 9 8 8 8 8 9 9 10 10 10 9 7 5 5 5 3 2 1 2 2 2 2 2 3 2 3 4 4 4 4 5 4 4 4 3 2 3 3 3 3 2 1 1 1
9 9 10 10 10 10 10 10 11 11 10 10 10 10 10 10 10 10 11 10 10 10 10 10 9 13 16 15 12 12 12 10 8 8 9 9 9 9 9 9 9 8 8 8 8 9 10 10 10 11 11 10 7 5 5 4 3 1 2 2 2 2 2 3 4 4 4 5 5 5 7 7 6 6 5 2 2 1 1 2 2 2 1 1 1
9 9 9 9 9 9 9 10 10 10 10 10 10 9 9 9 9 9 9 9 9 8 9 9 8 9 12 15 15 12 10 9 8 8 8 8 8 8 8 8 8 8 7 7 7 9 10 9 9 10 11 11 9 6 4 4 3 2 2 2 2 3 3 3 4 5 5 4 4 5 7 6 4 4 3 2 1 1 0 0 1 1 1 1 1
7 7 7 8 8 8 8 8 8 8 10 11 10 9 9 9 9 9 8 8 8 8 8 8 9 8 9 12 13 11 10 9 8 8 8 8 7 8 8 7 7 7 7 7 9 10 11 10 10 11 11 11 10 9 8 6 4 2 2 2 2 3 4 3 4 5 6 4 3 3 4 3 2 3 3 3 2 0 1 2 2 3 4 2 1
6 5 6 6 6 6 6 6 6 7 9 9 8 7 8 8 8 9 9 8 8 8 7 7 8 8 8 8 9 9 9 9 8 8 8 7 7 8 7 7 7 7 6 8 11 12 12 11 11 12 12 11 11 11 10 8 6 5 4 4 3 3 3 4 5 6 8 7 6 4 3 2 2 2 3 2 1 2 1 3 3 3 3 4 3
5 5 5 5 5 5 5 5 5 6 7 7 6 6 7 7 7 8 9 8 7 7 8 7 7 7 7 7 7 8 8 8 8 8 8 8 8 7 6 7 8 7 8 11 13 13 12 12 11 12 12 12 11 11 11 9 7 6 6 5 5 5 5 5 5 7 8 9 8 4 4 4 3 4 6 7 3 2 4 6 4 3 3 4 5
4 4 4 4 4 4 5 6 6 5 5 6 6 5 5 6 6 6 7 7 7 7 8 7 7 7 7 6 6 7 7 7 7 7 8 8 7 7 9 11 11 7 8 12 14 12 11 13 12 12 12 12 12 11 10 8 6 5 5 5 5 6 6 6 6 5 5 9 10 7 5 6 4 3 4 5 5 2 3 3 3 4 5 3 4
3 3 3 3 3 3 3 4 5 4 4 5 5 5 4 5 5 6 6 6 6 7 7 7 7 7 7 6 6 6 6 6 6 6 6 7 7 8 11 14 13 9 6 10 13 13 12 12 12 12 12 13 12 11 9 7 6 5 6 6 5 6 6 6 8 6 6 9 12 10 6 6 7 6 6 7 7 5 3 0 2 3 4 4 4
3 3 3 3 3 2 2 2 3 3 3 4 4 4 4 5 5 5 5 6 6 6 7 7 6 7 7 7 7 7 6 6 6 6 6 6 6 7 9 13 14 11 6 6 10 13 13 12 11 11 12 12 12 11 11 9 8 8 9 8 6 6 6 8 9 8 7 9 10 9 7 7 8 9 9 9 8 7 6 5 5 6 5 5 7
2 2 2 2 2 2 2 2 2 2 2 3 3 4 4 4 5 5 5 5 5 6 6 6 6 6 7 7 7 7 7 7 6 6 6 7 7 7 7 10 12 11 8 7 9 11 12 13 13 12 12 12 11 11 11 11 11 11 11 10 8 7 7 8 9 8 9 9 9 8 8 9 9 7 7 7 7 8 9 10 10 8 5 5 8
1 1 1 1 1 1 1 1 1 2 3 3 3 4 4 4 4 5 5 5 6 6 6 6 6 6 7 7 7 7 7 7 7 7 7 6 7 7 7 8 9 9 9 9 9 10 10 12 13 14 14 13 13 12 11 12 12 12 12 11 10 9 8 8 8 8 9 10 9 8 8 8 8 8 7 6 5 6 8 10 11 10 5 4 7
Wind_Direction
337 327 320 310 298 294 293 292 295 294 293 293 292 289 282 272 264 260 253 247 247 245 244 242 236 232 222 213 211 209 207 206 202 204 208 210 214 219 220 224 228 225 220 217 215 219 219 207 200 199 199 200 195 190 195 196 198 198 191 184 177 173 177 178 171 161 160 168 162 157 170 173 166 167 176 187 184 176 179 184 178 171 169 171 173
335 331 327 321 312 305 296 286 284 285 286 293 297 296 291 278 267 261 256 252 249 245 243 240 236 233 223 214 212 209 206 204 203 208 212 213 215 216 214 216 220 220 215 212 214 216 212 203 198 194 197 197 189 189 197 196 197 198 193 191 186 180 180 176 167 161 162 167 162 160 169 170 165 169 182 198 188 176 179 183 175 169 172 178 177
338 335 328 316 311 311 306 295 286 282 284 291 295 296 295 288 278 266 257 254 252 248 246 242 238 234 224 215 214 209 202 200 202 208 213 216 217 213 210 214 217 216 212 208 211 212 205 199 198 194 194 192 186 192 198 194 194 195 193 193 183 177 184 178 169 171 168 162 162 167 170 170 170 171 180 199 191 173 174 182 174 166 176 191 194
343 339 334 326 321 318 309 301 298 296 293 294 296 297 297 295 288 273 261 260 261 257 252 249 244 236 224 216 211 205 200 200 203 209 214 214 211 208 209 213 215 212 206 201 204 207 202 200 198 193 191 188 188 197 199 192 191 193 194 194 184 182 187 175 166 171 165 159 164 170 170 169 168 172 175 180 180 170 170 180 177 174 183 189 204
350 342 339 337 333 323 313 310 309 305 300 296 297 299 298 297 292 280 272 273 274 269 261 257 253 244 232 220 212 206 201 202 207 211 214 211 210 212 209 203 204 205 203 200 200 199 200 203 201 194 193 193 191 199 201 192 190 192 192 191 184 182 181 168 163 167 162 161 165 163 164 165 165 173 177 174 174 171 175 183 180 183 190 183 200
354 348 346 344 336 327 324 323 319 312 307 301 297 297 299 299 296 288 281 280 282 280 274 269 262 255 246 230 218 211 199 196 208 214 211 208 210 210 202 198 201 201 200 203 202 198 200 205 203 197 198 197 192 194 193 187 189 190 186 185 180 174 171 168 167 167 163 162 162 159 160 164 164 169 174 175 174 172 176 184 183 188 195 187 203
356 353 353 350 342 336 334 330 326 322 317 310 302 297 298 302 301 295 291 290 290 285 275 271 263 254 256 242 221 216 206 202 215 223 217 213 210 201 194 197 201 201 202 206 205 202 201 204 205 200 196 194 192 194 193 191 193 188 181 185 184 174 170 170 167 166 166 162 161 160 159 161 164 166 171 173 174 176 179 183 187 192 197 196 204
360 357 355 355 349 344 343 337 334 330 324 320 313 303 299 301 300 298 297 293 293 289 270 262 259 252 255 249 226 220 218 219 225 227 224 224 218 205 201 199 195 198 203 204 203 203 200 201 206 201 191 190 193 198 200 200 198 189 182 186 185 174 169 170 168 168 167 163 164 164 161 163 165 164 168 172 174 180 183 184 188 193 198 203 203
359 357 357 359 353 352 354 346 340 340 335 330 326 318 309 304 302 302 301 293 292 296 281 263 261 257 252 247 237 231 227 225 228 226 225 226 219 211 208 200 190 195 204 202 199 201 200 200 201 194 188 192 197 202 204 201 197 190 183 180 179 175 171 171 173 171 167 167 167 166 165 168 170 169 170 174 178 181 182 187 194 195 199 206 208
360 358 358 1 357 358 3 355 348 351 347 335 329 326 321 313 311 311 305 295 292 295 289 276 269 260 240 220 223 231 226 220 222 222 221 221 218 214 210 202 195 196 199 199 196 197 197 195 193 190 189 190 195 202 200 192 192 191 185 178 174 175 173 175 181 178 173 172 171 171 174 175 175 177 177 177 183 187 189 197 201 202 207 211 219
5 2 0 2 1 4 6 360 355 356 352 343 335 330 324 318 321 324 314 303 295 290 285 279 271 253 228 203 197 204 209 214 218 213 212 216 217 218 213 204 202 200 196 192 190 191 193 194 192 192 192 191 193 198 193 185 187 188 184 179 174 174 176 177 183 184 178 175 175 176 180 184 183 185 188 189 192 197 201 206 208 212 219 225 230
11 10 6 3 6 14 14 5 0 359 357 355 350 343 338 332 327 325 321 317 311 297 280 273 264 244 230 216 205 198 194 204 207 197 196 207 213 218 218 209 205 204 199 189 182 185 192 198 195 192 192 192 191 192 188 184 183 182 178 177 175 177 179 179 181 182 179 183 186 183 190 201 196 190 190 191 193 202 208 211 217 222 227 233 236
16 16 12 8 10 19 20 12 6 3 2 2 360 360 5 8 4 351 331 316 311 301 274 269 261 242 231 216 202 200 192 189 190 185 184 193 199 204 209 209 206 201 192 180 179 187 189 186 187 189 187 187 186 184 181 178 178 177 177 180 182 183 186 186 183 178 177 185 185 177 183 199 190 184 188 191 195 208 217 219 224 228 233 237 235
21 20 17 16 14 18 21 18 13 9 10 13 12 18 30 31 32 31 16 345 307 263 248 260 255 239 229 213 197 196 189 180 179 178 178 184 190 192 193 203 209 200 185 179 182 187 183 176 179 183 181 181 180 176 172 170 171 174 178 183 186 187 191 193 190 187 187 185 177 174 182 190 186 187 202 209 209 211 218 225 225 221 231 242 242
24 23 24 25 21 19 23 23 18 17 21 27 32 41 41 33 34 37 31 17 341 275 253 259 256 235 221 213 202 193 179 170 171 173 172 176 187 191 186 199 211 197 185 190 187 180 181 183 180 177 177 176 173 168 167 168 171 178 183 184 184 186 189 191 192 196 198 196 196 201 206 213 219 218 220 224 224 221 225 233 228 223 232 242 242
25 26 31 34 28 25 29 30 25 23 27 34 41 46 42 34 36 38 33 25 4 312 279 273 264 239 221 213 195 176 164 161 166 169 168 174 184 191 192 197 198 181 181 193 181 165 170 177 168 166 171 171 168 168 169 172 180 188 187 184 185 185 183 183 187 193 198 199 202 208 213 221 229 232 232 236 236 232 233 241 241 239 241 242 242
23 26 37 40 35 32 34 35 33 30 32 40 41 43 46 45 47 48 44 40 35 21 17 11 349 196 191 182 168 165 166 163 161 163 170 180 187 198 200 181 156 154 178 194 179 165 167 165 160 163 169 169 170 173 174 172 176 184 184 183 185 184 181 181 184 187 191 198 206 215 225 232 239 242 241 241 239 229 217 223 245 249 251 254 252
24 26 41 45 40 40 39 38 40 38 37 41 42 47 57 58 57 57 56 55 53 54 63 66 65 72 85 101 108 148 175 163 157 162 175 184 190 205 210 180 154 154 179 190 187 177 170 167 171 176 176 173 173 177 178 169 161 170 181 182 182 183 182 183 188 194 201 211 221 228 234 238 241 241 237 233 231 219 202 202 209 216 253 274 258
26 26 39 48 46 45 44 42 43 41 37 39 44 57 71 74 70 66 66 66 63 62 70 72 63 59 63 71 69 68 125 140 146 158 167 175 184 197 197 163 148 144 172 187 196 189 177 175 180 182 178 174 174 179 184 174 153 154 169 175 181 189 190 191 196 206 216 221 223 228 233 233 228 225 225 229 234 233 227 222 210 199 208 250 225
32 27 35 50 53 50 46 45 47 46 42 38 43 62 82 89 83 74 69 70 66 62 68 76 75 65 59 61 65 78 107 126 145 157 154 145 148 164 176 158 152 156 178 190 192 189 184 179 172 169 173 176 176 178 182 176 160 152 157 164 175 183 191 197 186 164 177 213 221 219 219 223 222 223 234 243 246 246 241 235 226 214 198 175 182
39 34 37 48 56 53 45 43 47 53 53 47 46 64 83 93 92 84 78 75 70 64 67 77 84 78 65 60 60 70 101 126 155 148 143 137 128 139 227 216 185 192 205 200 186 179 182 182 167 163 172 177 176 172 167 165 166 162 160 165 168 169 185 189 167 164 189 221 227 191 173 240 258 263 267 263 261 257 248 240 232 220 202 174 153
46 44 43 46 51 51 44 39 42 50 55 56 58 69 82 93 94 89 85 86 82 73 70 81 92 92 86 83 78 72 85 95 82 74 92 84 68 65 327 321 287 247 224 207 188 172 169 171 165 163 170 175 175 173 166 163 166 165 166 171 172 176 189 183 168 175 201 220 196 156 181 260 284 284 279 275 272 265 250 234 224 215 206 192 170
52 52 49 48 50 51 48 42 38 41 47 51 58 66 74 87 93 89 85 88 90 82 76 87 102 107 104 100 96 91 89 92 91 86 80 71 58 48 44 44 28 1 95 171 175 157 153 160 161 162 170 174 173 176 178 181 186 186 186 187 179 181 189 183 173 187 223 230 219 215 217 252 284 266 277 283 271 254 234 211 211 207 201 203 198
58 56 54 53 53 55 57 56 49 44 44 46 55 65 72 88 97 94 90 88 91 90 88 93 103 107 108 105 101 98 95 94 93 89 83 83 81 76 75 76 73 71 99 132 143 138 141 156 160 164 172 172 171 180 190 194 193 189 184 177 166 165 168 163 168 202 222 215 210 187 140 119 136 205 256 280 274 256 217 181 201 208 201 206 209
63 61 60 60 58 59 65 68 65 62 59 56 59 69 81 97 102 101 99 96 93 92 93 96 100 103 105 106 103 101 100 100 100 97 94 94 95 96 98 97 95 105 127 139 143 148 157 166 166 168 171 162 160 166 164 162 162 156 146 140 128 115 107 104 143 177 192 201 204 188 164 163 203 238 259 304 1 3 17 96 142 89 99 184 209
66 64 65 67 67 69 74 75 74 74 73 70 71 75 79 86 90 91 92 92 90 89 89 88 90 91 93 95 96 97 98 99 100 98 96 96 95 95 98 99 102 116 129 131 131 134 140 143 141 141 144 144 145 140 120 107 110 116 119 122 113 99 93 110 165 167 167 170 180 201 202 212 245 262 257 106 104 95 68 65 61 58 61 64 53
73 70 68 68 69 72 76 77 77 78 79 79 79 79 77 78 78 78 78 77 77 79 78 76 75 76 78 82 84 85 87 89 89 89 90 91 92 93 94 95 98 105 112 114 114 113 112 114 112 107 104 102 101 97 86 74 73 80 87 88 89 90 92 117 190 198 201 198 202 221 231 231 241 244 151 140 155 167 150 118 108 117 121 127 118
76 76 73 70 68 67 68 70 71 74 77 78 79 77 74 73 71 70 68 67 67 69 70 69 68 67 67 68 66 64 64 65 65 66 67 70 75 79 82 83 84 88 95 97 99 100 99 103 104 98 94 96 97 97 92 82 75 72 69 69 73 82 94 115 234 231 230 230 227 226 228 201 151 136 136 142 147 149 141 132 138 148 143 149 161
75 75 74 73 72 68 67 65 64 65 67 69 71 72 70 68 68 68 66 64 64 65 66 66 65 63 62 61 57 52 51 51 51 52 52 52 52 51 53 56 54 54 60 59 42 317 239 127 98 81 72 72 75 75 76 68 58 47 37 26 18 20 47 226 230 213 190 176 174 163 143 141 148 145 144 149 150 148 146 142 146 156 157 163 179
73 73 73 72 72 72 71 69 66 64 63 62 64 66 66 66 65 65 65 65 64 64 65 65 64 63 63 65 64 62 63 63 62 62 61 59 57 54 55 57 55 54 56 55 55 59 63 68 71 63 53 50 48 44 42 37 29 19 5 346 330 299 236 223 224 215 195 177 166 158 149 144 146 149 157 166 168 163 156 146 139 149 154 156 168
71 70 70 71 72 73 72 72 71 69 67 64 60 57 57 57 57 57 59 63 66 66 66 67 69 68 68 69 69 69 71 71 70 69 68 65 62 61 60 60 59 60 60 58 58 57 50 46 52 51 42 35 31 24 20 13 3 356 346 328 303 264 236 226 221 217 208 199 189 180 168 153 145 151 152 144 141 151 150 137 128 144 152 150 158
72 69 68 70 71 72 72 74 74 72 72 72 67 57 50 48 49 51 52 55 61 67 67 66 69 72 74 76 77 77 79 80 78 76 73 69 66 65 62 61 61 61 58 54 53 50 41 32 33 31 21 14 11 5 359 354 348 339 331 321 298 267 249 234 220 205 191 185 189 188 179 172 174 178 166 146 136 145 148 142 151 166 166 155 149
73 70 68 67 68 69 69 70 71 72 72 72 72 71 65 55 49 50 48 45 49 57 62 63 65 70 74 78 80 81 83 84 83 80 76 71 70 69 66 64 63 61 60 56 51 46 38 29 22 13 3 360 359 356 355 356 348 333 328 330 312 291 267 241 257 247 205 174 182 195 191 188 187 185 171 153 143 142 134 128 144 156 153 147 144
77 79 78 73 69 68 68 66 66 67 68 68 68 70 72 70 64 58 53 46 43 47 50 51 54 61 68 73 77 80 82 83 80 75 70 68 70 68 61 57 53 50 51 53 49 43 36 26 16 9 5 8 21 33 31 22 12 5 13 25 360 349 14 27 328 322 354 33 10 24 82 96 83 100 124 126 126 137 140 131 129 130 135 142 142
76 80 79 73 68 66 66 65 64 63 63 64 65 65 68 71 70 67 63 58 55 52 45 41 41 45 52 61 64 65 66 66 61 53 50 47 46 44 38 33 33 35 34 34 34 33 29 23 15 8 3 6 36 56 54 38 30 26 20 30 33 5 19 247 257 301 37 37 311 72 123 131 119 127 150 140 127 133 140 139 134 126 120 122 118
72 70 69 68 68 69 67 65 64 64 63 63 63 64 66 68 69 69 66 60 60 60 49 37 34 32 32 36 39 38 38 38 29 24 23 19 21 30 30 21 21 26 26 23 23 21 17 17 14 8 4 7 26 43 34 344 340 7 5 15 345 247 231 212 201 168 128 202 210 177 160 163 159 160 172 159 144 138 138 139 138 135 132 129 115
80 73 69 69 68 69 69 66 63 64 65 65 64 64 65 66 67 70 69 64 61 60 54 43 35 29 24 22 23 24 26 26 23 21 21 17 20 32 38 32 26 25 22 19 21 19 14 12 15 15 15 15 11 5 3 4 356 344 5 23 318 256 232 222 201 159 138 173 196 158 152 163 156 146 152 154 149 143 136 129 125 132 137 129 111
104 101 97 91 82 73 69 67 65 65 64 64 64 64 64 65 66 68 67 65 62 59 55 51 44 36 28 22 18 19 22 25 28 30 32 32 34 36 38 40 38 32 24 18 17 19 15 11 16 17 10 14 14 2 358 3 357 346 352 354 324 285 236 236 235 158 136 158 181 158 154 159 150 142 152 160 156 147 135 117 93 97 110 102 88
100 109 109 99 84 74 70 69 69 68 67 65 64 63 63 63 64 65 64 63 61 57 54 50 40 32 39 57 55 42 32 28 31 37 39 41 43 41 39 41 42 40 37 30 25 23 14 3 1 357 343 344 360 351 334 326 318 321 337 344 339 352 33 354 295 172 132 149 161 151 148 154 152 150 154 155 150 139 132 121 101 98 99 82 84
86 91 91 84 75 70 71 73 72 69 68 67 64 63 64 62 61 61 60 59 59 57 55 51 42 37 53 86 92 72 52 38 34 37 38 38 39 38 37 35 34 33 33 28 21 18 11 359 353 347 337 330 328 316 302 294 284 287 310 308 298 302 285 229 221 181 161 164 167 163 160 157 155 152 152 150 143 126 112 101 91 98 97 73 80
84 82 80 77 75 72 70 71 71 69 68 68 63 62 62 61 60 59 56 55 56 53 52 51 39 33 43 68 85 70 55 46 38 36 35 33 33 33 32 31 29 27 25 21 14 11 7 359 352 348 341 334 327 322 313 307 304 315 316 281 249 239 231 202 182 174 172 166 158 158 165 168 170 178 182 169 125 102 96 82 67 71 90 64 69
88 85 79 74 76 77 74 73 70 65 64 65 63 60 58 56 55 56 53 51 52 50 48 49 40 28 30 41 56 59 50 40 35 35 32 28 28 27 25 25 25 22 19 17 12 6 2 359 354 349 345 338 332 330 326 320 316 315 298 275 234 215 221 200 178 167 163 159 165 182 187 185 181 183 186 162 84 82 156 140 96 71 27 307 265
93 91 87 82 81 81 79 76 71 64 62 64 63 57 55 53 51 49 46 44 45 44 40 40 40 29 21 26 37 44 40 31 30 30 25 22 22 20 17 15 13 13 12 7 2 359 358 356 350 344 341 339 337 333 325 318 311 291 281 267 218 204 208 194 175 173 173 173 191 197 186 176 170 178 192 209 182 138 157 263 240 224 234 274 260
91 91 88 85 83 80 76 74 69 60 56 57 56 52 51 51 47 43 41 39 38 40 39 36 34 30 22 21 27 31 28 25 24 21 17 16 13 11 9 3 359 1 360 349 344 347 348 345 341 340 340 340 338 333 325 315 306 291 267 255 240 225 212 191 181 186 185 179 182 180 169 161 170 190 219 265 279 113 60 349 285 232 200 188 222
93 94 92 88 85 80 74 70 65 57 51 50 49 47 46 47 44 40 39 38 33 34 36 32 27 26 25 23 23 24 23 21 18 15 13 9 4 4 1 350 345 348 342 332 333 337 339 337 335 337 339 338 335 332 327 318 307 294 273 251 228 213 215 213 204 196 187 173 161 167 190 195 184 192 213 230 38 51 298 271 266 236 198 182 194
98 93 93 96 91 81 73 67 65 64 57 50 48 46 42 41 41 37 36 40 39 35 31 27 22 21 19 16 17 19 18 15 15 13 8 4 4 1 346 338 343 339 321 323 332 335 334 333 334 334 335 335 333 331 329 322 312 304 293 269 222 204 218 220 199 189 189 179 167 167 208 214 227 273 255 234 225 316 292 262 232 198 187 193 207
104 94 97 102 93 87 85 73 65 66 61 50 48 46 34 27 29 25 23 30 36 30 23 20 18 16 12 8 7 7 6 5 8 8 4 4 5 347 330 339 357 353 318 322 336 341 334 333 336 335 335 334 332 329 330 329 321 311 309 292 247 232 235 216 186 182 199 197 190 186 189 192 205 293 283 240 228 256 300 290 244 190 171 175 206
101 94 106 109 95 95 96 68 51 53 53 43 43 41 20 10 17 19 13 17 23 20 15 14 13 9 6 2 355 352 350 349 352 354 352 353 356 340 327 336 354 6 336 321 330 335 334 334 335 335 336 337 334 327 326 328 320 306 308 308 282 259 246 219 204 207 214 209 210 213 205 200 212 225 224 223 221 203 171 22 280 202 168 160 183
99 97 112 111 98 104 109 65 35 33 25 17 20 22 7 359 4 10 5 3 4 2 1 4 3 359 358 356 349 343 339 336 335 336 333 332 342 341 325 326 342 5 13 329 320 328 333 335 335 334 335 335 332 326 320 317 310 303 307 313 304 277 251 229 223 228 225 216 223 237 243 241 243 240 234 238 238 216 194 194 198 189 182 187 190
96 101 104 104 110 108 86 43 24 19 12 3 360 358 354 353 353 351 347 346 348 348 348 349 348 346 346 346 343 339 335 328 323 322 319 315 321 326 319 318 331 348 353 335 325 330 332 332 334 338 337 333 330 326 319 314 310 307 306 306 300 283 263 243 232 231 227 222 229 243 248 249 253 252 247 249 242 219 207 205 195 182 189 211 201
103 119 103 101 133 121 12 330 317 342 356 357 340 330 329 332 333 333 331 330 330 330 331 332 332 332 333 334 332 331 328 323 315 312 310 305 304 307 310 312 316 320 328 335 336 330 324 322 325 330 335 337 334 329 323 317 313 310 307 301 291 280 269 254 238 228 227 230 238 249 252 252 253 248 240 238 233 223 217 209 193 175 173 213 214